Flag for Brazil Weather past 2 weeks in Londrina, Paraná, Brazil

Now
77 °F

Passing clouds.


Feels Like: 79 °F
Forecast: 69 / 85 °F
Wind: 5 mph from Southeast

Location: Londrina Aeroporto

Current Time: Mar 27, 2015 at 10:51:05 PM

Latest Report: Mar 27, 2015 at 10:00 PM


Visibility: N/A

Pressure: 30.09 "Hg

Humidity: 69%

Dew point: 66 °F

Location of LondrinaLocation

Historic Weather in Londrina — Graph

°F

Londrina temperature yesterday

Maximum temperature yesterday: 88 °F (at 3:00 PM)
Minimum temperature yesterday: 64 °F (at 7:00 AM)
Average temperature yesterday: 77 °F

Past Weeks' High & Low Weather Summary

 TemperatureHumidityPressure
High91 °F (Mar 15, 2:00 PM)100% (Mar 20, 9:00 PM)30.18 "Hg (Mar 20, 9:00 PM)
Low63 °F (Mar 13, 7:00 AM)33% (Mar 25, 5:00 PM)29.83 "Hg (Mar 21, 3:00 PM)
Average75 °F73%30.00 "Hg
* Reported Mar 12 9:00 PM — Mar 27 9:00 PM, Londrina, Weather by CustomWeather, © 2015

Note: Actual official high and low records may vary slightly from our data, if they occured in-between our weather recording intervals... More about our weather records

Advertising

Londrina weather history for previous 24 hours

 ConditionsComfort  
Time TempWeatherWind HumidityBarometerVisibility
9:00 PM
Fri, Mar 27
79 °FPassing clouds.5 mph70%30.09 "HgN/A
8:00 PM79 °FPassing clouds.9 mph65%30.07 "HgN/A
7:00 PM81 °FPassing clouds.12 mph62%30.04 "HgN/A
6:00 PM82 °FPassing clouds.12 mph55%30.04 "HgN/A
5:00 PM86 °FScattered clouds.13 mph49%30.01 "HgN/A
4:00 PM86 °FScattered clouds.13 mph52%30.04 "HgN/A
3:00 PM88 °FScattered clouds.17 mph43%30.04 "HgN/A
2:00 PM88 °FScattered clouds.12 mph49%30.04 "HgN/A
1:00 PM88 °FScattered clouds.9 mph49%30.07 "HgN/A
12:00 PM82 °FSunny.2 mph62%30.09 "Hg10 mi
11:00 AM81 °FSunny.5 mph66%30.09 "Hg10 mi
10:00 AM79 °FSunny.5 mph70%30.07 "Hg10 mi
9:00 AM75 °FClear.3 mph83%30.07 "HgN/A
8:00 AM72 °FSunny.5 mph88%30.04 "Hg10 mi
7:00 AM72 °FSunny.No wind88%30.04 "Hg10 mi
6:00 AM72 °FScattered clouds.No wind88%30.07 "HgN/A
5:00 AM72 °FLight rain. Partly cloudy.No wind88%30.07 "Hg4 mi
4:00 AM72 °FLight rain. Passing clouds.5 mph88%30.04 "Hg6 mi
3:00 AM75 °FClear.6 mph74%30.01 "Hg10 mi
2:00 AM75 °FClear.6 mph74%30.01 "Hg10 mi
1:00 AM75 °FClear.7 mph74%30.01 "Hg10 mi
12:00 AM77 °FClear.No wind69%30.01 "Hg10 mi
11:00 PM
Thu, Mar 26
79 °FClear.No wind61%30.01 "Hg10 mi
10:00 PM79 °FClear.No wind61%30.01 "Hg10 mi
Weather by CustomWeather, © 2015

See weather overviewHow to use our weather pages